This is the latest recevied weather packets stored in our database for station/object KI5MKI. If no packets are shown the sender has not sent any weather packets the latest 10 day(s).
| Time | Temp. | Humidity | Pressure | Rain* | Wind** | Luminosity | Snow |
|---|---|---|---|---|---|---|---|
| 1778019579 | 28.33° C | 68% | 1005.1 hPa | 0 mm | - | 377 W/m² | - |
| 1778019276 | 28.89° C | 68% | 1005.2 hPa | 0 mm | - | 512 W/m² | - |
| 1778018974 | 27.78° C | 70% | 1005.1 hPa | 0 mm | - | 557 W/m² | - |
| 1778018670 | 28.33° C | 69% | 1005.2 hPa | 0 mm | - | 202 W/m² | - |
| 1778018368 | 28.33° C | 67% | 1005.3 hPa | 0 mm | - | 327 W/m² | - |
| 1778018066 | 28.89° C | 66% | 1005.5 hPa | 0 mm | - | 258 W/m² | - |
| 1778017764 | 28.89° C | 67% | 1005.1 hPa | 0 mm | - | 537 W/m² | - |
| 1778017461 | 28.89° C | 68% | 1005.2 hPa | 0 mm | - | 607 W/m² | - |
| 1778017158 | 28.33° C | 67% | 1005.2 hPa | 0 mm | - | 662 W/m² | - |
| 1778016856 | 27.78° C | 68% | 1005.1 hPa | 0 mm | - | 526 W/m² | - |
| 1778016552 | 27.78° C | 69% | 1005.4 hPa | 0 mm | - | 462 W/m² | - |
| 1778016249 | 27.78° C | 68% | 1005.5 hPa | 0 mm | - | 263 W/m² | - |
| 1778015945 | 27.78° C | 68% | 1005.5 hPa | 0 mm | - | 172 W/m² | - |
| 1778015643 | 27.78° C | 68% | 1005.5 hPa | 0 mm | - | 217 W/m² | - |
| 1778015339 | 27.78° C | 68% | 1005.6 hPa | 0 mm | - | 220 W/m² | - |
| 1778015036 | 27.78° C | 67% | 1005.7 hPa | 0 mm | - | 219 W/m² | - |
| 1778014733 | 29.44° C | 65% | 1005.6 hPa | 0 mm | - | 254 W/m² | - |
| 1778014431 | 28.89° C | 66% | 1005.5 hPa | 0 mm | - | 796 W/m² | - |
| 1778014128 | 29.44° C | 65% | 1005.5 hPa | 0 mm | - | 662 W/m² | - |
| 1778013826 | 29.44° C | 67% | 1005.5 hPa | 0 mm | - | 854 W/m² | - |
| 1778013522 | 28.89° C | 65% | 1005.5 hPa | 0 mm | - | 817 W/m² | - |
| 1778013219 | 28.89° C | 66% | 1005.5 hPa | 0 mm | - | 810 W/m² | - |
| 1778012915 | 28.33° C | 67% | 1005.6 hPa | 0 mm | - | 784 W/m² | - |
| 1778012612 | 27.22° C | 69% | 1005.7 hPa | 0 mm | - | 897 W/m² | - |
| 1778012308 | 27.22° C | 69% | 1005.8 hPa | 0 mm | - | 866 W/m² | - |
* Rain latest hour (hover to see other rain measurements)
** Current wind speed in m/s (hover to see current wind gust speed)